NOAA 16 DEB, 41667

Orbit data source: Space-Track

NOAA 16 DEB, 41667 is space debris in SSO originally from a launch on Thu, 21 Sep 2000 UTC launched from the Air Force Western Test Range (AFWTR). Debris objects in space refer to the collection of defunct objects orbiting the Earth. Examples of debris include non-operational satellites, rocket bodies, and fragments generated from explosions, collisions, or faulty payload assembly.

Loading next visibility...
Identifier
41667, 2000-055PG
Orbit
SSO
Country
Flag of USUS
Related business
Manufacturer
Unknown
Mission
Spacecraft
Bus & Motor
Unknown
Mass
Unknown
Launch date (UTC)
2000-09-21 (25 years ago)
Launch vehicle
Unknown
Launch site
Air Force Western Test Range (AFWTR)
Object type
Payload
Rocket body
Debris
Shape & HBR
Unknown shape, 0.1 m
Radar Cross Section
Small (<0.1 m²)

Expand to show TLE details & history
Last TLE update: 1 week ago

TLE from 1 week ago
0 NOAA 16 DEB
1 41667U 00055PG  26029.51477989  .00002467  00000-0  10616-2 0  9998
2 41667  98.7691 134.8237 0029760 215.4098 144.5106 14.25314578508360
Epoch: 2026-01-29T12:21Z
TLE epoch observation values (Epoch: 2026-01-29T12:21:16.982Z)
Latitude
0.00001°
Longitude
-179.26344°
Altitude
827.791 km
Speed
7.43 km/s
True Right ascension
08h 59m 17s
True Declination
0° 00' 00"
Sunlit
Object was in full shadow at epoch
Visualization orbit readout
Latitude
Unknown
Longitude
Unknown
Altitude
Unknown
Speed
Unknown
Apparent Right ascension
Unknown
Apparent Declination
Unknown
Sunlit
N/A
Visualization observer readout
Local Sidereal Time
23:10:33
Azimuth
Unknown
Elevation
Unknown
Doppler factor
Unknown
Orbital elements
Apogee altitude
825.965 km
Perigee altitude
783.214 km
Semi-major axis
7,182.727 km
Eccentricity
0.00298
Inclination
98.7691°
RAAN
134.8237°
Arg. of periapsis
215.4098°
True anomaly
144.70798°
Mean anomaly
144.5106°
Eccentric anomaly
144.60935°
Mean motion
3.56541 °/min
Orbital period
100.97 mins
BSTAR
0.0010616
Loading maneuver chart data...
Computing Atmospheric mass density...
Loading historical data...
Loading historical data...
Loading historical data...
Loading historical data...
Loading historical data...
Loading historical data...
Loading historical data...

Documentation

Showing up to 5 results
|